• MPC Preparation (Info)

  • MPEC 2012-F84 : 2012 FW35

    The following Minor Planet Electronic Circular may be linked-to from your own Web pages, but must not otherwise be redistributed electronically.

    A form allowing access to any MPEC is at the bottom of this page.


    Read MPEC 2012-F83 Read MPEC 2012-F85


    M.P.E.C. 2012-F84                                Issued 2012 Mar. 25, 22:56 UT
    
         The Minor Planet Electronic Circulars contain information on unusual
             minor planets and routine data on comets.  They are published
       on behalf of Commission 20 of the International Astronomical Union by the
              Minor Planet Center, Smithsonian Astrophysical Observatory,
                              Cambridge, MA 02138, U.S.A.
    
                 Prepared using the Tamkin Foundation Computer Network
    
                                  MPC@CFA.HARVARD.EDU
                URL https://www.minorplanetcenter.net/    ISSN 1523-6714
    
                                       2012 FW35
    
    Observations:
         K12F35W* C2012 03 24.31913 12 10 41.41 -10 26 11.7          21.7 VrEF084G96
         K12F35W  C2012 03 24.32610 12 10 44.68 -10 26 06.7          21.2 VrEF084G96
         K12F35W  C2012 03 24.33309 12 10 47.92 -10 26 01.7          20.8 VrEF084G96
         K12F35W  C2012 03 24.34007 12 10 51.27 -10 25 57.2          20.7 VrEF084G96
         K12F35W  C2012 03 24.43210 12 11 35.72 -10 24 45.5          21.6 VrEF084G96
         K12F35W  C2012 03 24.43314 12 11 36.24 -10 24 44.2          20.9 VrEF084G96
         K12F35W  C2012 03 24.43418 12 11 36.73 -10 24 43.4          21.3 VrEF084G96
         K12F35W  C2012 03 24.44526 12 11 42.25 -10 24 35.2          20.9 VrEF084G96
         K12F35W  C2012 03 24.44578 12 11 42.46 -10 24 35.2          20.6 VrEF084G96
         K12F35W  C2012 03 25.29502 12 20 07.90 -10 12 49.4          20.7 VrEF084G96
         K12F35W  C2012 03 25.30370 12 20 13.02 -10 12 41.0          20.7 VrEF084G96
         K12F35W  C2012 03 25.31242 12 20 18.24 -10 12 33.0          20.8 VrEF084G96
         K12F35W  C2012 03 25.32111 12 20 23.31 -10 12 24.1          21.1 VrEF084G96
    
    Observer details:
    G96 Mt. Lemmon Survey.  Observers A. R. Gibbs, R. A. Kowalski.  Measurers
        J. D. Ahern, E. C. Beshore, A. Boattini, A. R. Gibbs, A. D. Grauer,
        R. E. Hill, R. A. Kowalski, S. M. Larson, R. H. McNaught.  1.5-m reflector
        + CCD.
    
    Orbital elements:
    2012 FW35                                                Earth MOID = 0.0117 AU
    Epoch 2012 Mar. 14.0 TT = JDT 2456000.5                 MPC
    M 340.99865              (2000.0)            P               Q
    n   0.35888113     Peri.   49.46976     -0.52825175     +0.84892668
    a   1.9611116      Node   188.68940     -0.80837310     -0.50878594
    e   0.5376157      Incl.    6.28548     -0.25977494     -0.14303972
    P   2.75           H   26.4           G   0.15           U   9
    Residuals in seconds of arc
    120324 G96  0.3+  0.1+    120324 G96  0.4+  0.6+    120325 G96  0.2-  0.1+
    120324 G96  0.1+  0.2+    120324 G96  0.0   0.5+    120325 G96  0.7+  0.3-
    120324 G96  0.7-  0.2+    120324 G96  0.1+  0.4-    120325 G96  0.5-  0.2+
    120324 G96  0.1+  0.4-    120324 G96  0.7-  0.9-
    120324 G96  0.3+  0.1+    120325 G96  0.0   0.0
    
    Ephemeris:
    2012 FW35                a,e,i = 1.96, 0.54, 6                   q = 0.9068
    Date    TT    R. A. (2000) Decl.     Delta      r     Elong.  Phase     V
    2012 02 24    11 12 11.5 -09 33 02   0.2990  1.2709   157.5    17.4    25.2
    ...
    2012 03 10    11 23 17.1 -10 45 42   0.1700  1.1582   165.1    12.7    23.6
    ...
    2012 03 18    11 38 25.7 -10 55 44   0.1088  1.1019   167.7    11.1    22.5
    ...
    2012 03 24    12 08 01.2 -10 28 13   0.06603 1.0623   170.9     8.6    21.2
    2012 03 25    12 17 02.5 -10 15 40   0.05924 1.0559   171.6     8.0    20.9
    2012 03 26    12 28 21.2 -09 58 09   0.05259 1.0497   172.0     7.6    20.7
    ...
    2012 04 01    15 54 04.3 -01 05 44   0.02205 1.0142   132.0    47.1    19.9
    ...
    2012 04 09    21 18 38.0 +11 34 24   0.05531 0.9729    57.5   119.8    24.9
    ...
    2012 04 24    22 27 52.9 +11 59 11   0.1586  0.9202    53.4   118.6    27.0
    
    A. U. Tomatic                (C) Copyright 2012 MPC           M.P.E.C. 2012-F84
    

    Read MPEC 2012-F83 Read MPEC 2012-F85


    MPEC number:

    Enter an MPEC number in one of the following forms:

    • 1997-B01 (the full form)
    • J97B01 (the packed version of the full form)
    • B01 (the abbreviated form)